Weather History for Jacksonville NAS, FL

Change the Weather History Date:

Wednesday, March 6, 2013

  Actual Average Record
Temperature  
Mean Temperature 56 °F -  
Max Temperature 66 °F 69 °F 87 °F (2003)
Min Temperature 45 °F 51 °F 41 °F (2001)
Degree Days  
Heating Degree Days 10    
Growing Degree Days 6 (Base 50)    
Moisture  
Dew Point 37 °F    
Average Humidity 55    
Maximum Humidity 90    
Minimum Humidity 26    
Precipitation  
Precipitation 0.05 in - - ()
Sea Level Pressure  
Sea Level Pressure 30.00 in    
Wind  
Wind Speed 15 mph (WNW)    
Max Wind Speed 22 mph    
Max Gust Speed 37 mph    
Visibility 10 miles    
Events Rain    
Averages and records for this station are not official NWS values.
T = Trace of Precipitation, MM = Missing Value Source: NWS Daily Summary

Daily Weather History Graph

Daily Weather History Graph

Search for Another Location

Airport:

Trip Planner

Search our weather history database for the weather conditions in past years. The results will help you decide how hot, cold, wet, or windy it might be!

Date:

Astronomy

Mar. 06, 2013 Rise Set
Actual Time 6:46 AM EST 6:29 PM EST
Civil Twilight 6:22 AM EST 6:53 PM EST
Nautical Twilight 5:55 AM EST 7:21 PM EST
Astronomical Twilight 5:27 AM EST 7:48 PM EST
Moon 2:37 AM EST (3/6) 1:26 PM EST (3/6)
Length of Visible Light 12h 30m
Length of Day
11h 42m
Waning Crescent, 30% of the Moon is Illuminated
Mar 6
Waning Crescent
Mar 11
New
Mar 19
First Quarter
Mar 27
Full
Apr 3
Last Quarter

Hourly Weather History & Observations

Time (EST) Temp. Windchill Dew Point Humidity Pressure Visibility Wind Dir Wind Speed Gust Speed Precip Events Conditions
12:53 AM 64.9 °F - 57.9 °F 78% 29.88 in 10.0 mi SW 13.8 mph - N/A   Mostly Cloudy
1:18 AM 66.2 °F - 59.0 °F 78% 29.88 in 10.0 mi SW 18.4 mph - 0.00 in Rain Light Rain
1:26 AM 64.4 °F - 60.8 °F 88% 29.90 in 5.0 mi West 13.8 mph - 0.04 in Rain Light Rain
1:41 AM 62.6 °F - 59.0 °F 88% 29.90 in 10.0 mi West 17.3 mph 27.6 mph 0.05 in   Overcast
1:46 AM 62.6 °F - 57.2 °F 82% 29.90 in 10.0 mi West 15.0 mph 25.3 mph 0.05 in Rain Light Rain
1:53 AM 62.1 °F - 57.9 °F 86% 29.90 in 8.0 mi West 19.6 mph 31.1 mph 0.05 in Rain Light Rain
2:03 AM 60.8 °F - 55.4 °F 82% 29.91 in 10.0 mi WNW 15.0 mph 24.2 mph 0.00 in   Scattered Clouds
2:53 AM 57.9 °F - 55.0 °F 90% 29.90 in 10.0 mi WNW 9.2 mph - 0.00 in   Scattered Clouds
3:53 AM 52.0 °F - 37.0 °F 57% 29.94 in 10.0 mi WNW 21.9 mph 36.8 mph N/A   Partly Cloudy
4:53 AM 46.9 °F - 34.0 °F 61% 29.99 in 10.0 mi WNW 17.3 mph 28.8 mph N/A   Partly Cloudy
5:53 AM 46.0 °F 39.6 °F 30.9 °F 56% 30.01 in 10.0 mi WNW 15.0 mph 21.9 mph N/A   Partly Cloudy
6:53 AM 45.0 °F 38.2 °F 30.9 °F 58% 30.02 in 10.0 mi WNW 15.0 mph 25.3 mph N/A   Partly Cloudy
7:53 AM 45.0 °F 39.7 °F 32.0 °F 60% 30.04 in 10.0 mi WNW 10.4 mph - N/A   Clear
8:53 AM 46.9 °F - 28.0 °F 48% 30.05 in 10.0 mi WNW 12.7 mph 29.9 mph N/A   Clear
9:53 AM 48.9 °F - 25.0 °F 39% 30.05 in 10.0 mi WNW 19.6 mph 31.1 mph N/A   Clear
10:53 AM 51.1 °F - 26.1 °F 38% 30.04 in 10.0 mi West 13.8 mph 23.0 mph N/A   Clear
11:53 AM 53.1 °F - 25.0 °F 34% 30.04 in 10.0 mi WNW 18.4 mph 25.3 mph N/A   Clear
12:53 PM 55.0 °F - 24.1 °F 30% 30.01 in 10.0 mi West 16.1 mph 26.5 mph N/A   Clear
1:53 PM 57.0 °F - 24.1 °F 28% 29.98 in 10.0 mi WNW 12.7 mph 23.0 mph N/A   Clear
2:53 PM 59.0 °F - 24.1 °F 26% 29.96 in 10.0 mi WNW 19.6 mph 26.5 mph N/A   Clear
3:53 PM 57.9 °F - 26.1 °F 30% 29.96 in 10.0 mi West 15.0 mph 27.6 mph N/A   Clear
4:53 PM 57.0 °F - 27.0 °F 32% 29.99 in 10.0 mi WNW 17.3 mph 25.3 mph N/A   Clear
5:53 PM 55.0 °F - 28.0 °F 35% 30.01 in 10.0 mi NW 16.1 mph 25.3 mph N/A   Clear
6:53 PM 52.0 °F - 28.0 °F 40% 30.05 in 10.0 mi NW 10.4 mph - N/A   Clear
7:53 PM 51.1 °F - 28.9 °F 43% 30.08 in 10.0 mi NW 10.4 mph - N/A   Clear
8:53 PM 48.9 °F - 30.0 °F 48% 30.11 in 10.0 mi NW 5.8 mph - N/A   Clear
9:53 PM 48.0 °F - 30.9 °F 52% 30.13 in 10.0 mi NW 10.4 mph - N/A   Clear
10:53 PM 46.9 °F - 30.9 °F 54% 30.14 in 10.0 mi NW 6.9 mph - N/A   Clear
11:53 PM 46.0 °F 39.3 °F 30.9 °F 56% 30.14 in 10.0 mi NNW 16.1 mph - N/A   Clear